Regional Weather Roundup
Issued by NWS

Home | Current Version | Previous Version | Graphics & Text | Print | Product List | Glossary On
Versions: 1 2 3 4 5 6 7 8 9 10 11 12 13 14 15 16 17 18 19 20 21 22 23 24 25 26 27 28 29 30 31 32 33 34 35 36 37 38 39 40 41 42 43 44 45 46 47 48 49 50
000
ASUS43 KLSX 011410
RWRMO

WEATHER SUMMARY FOR MISSOURI
NATIONAL WEATHER SERVICE SPRINGFIELD MO
900 AM CDT TUE SEP 01 2015

NOTE: "FAIR" INDICATES FEW OR NO CLOUDS BELOW 12,000 FEET WITH NO
       SIGNIFICANT WEATHER AND/OR OBSTRUCTIONS TO VISIBILITY.
       CURRENT SKY AND/OR WEATHER CONDITIONS ARE NOT AVAILABLE FOR
       CHILLICOTHE AND FARMINGTON.

MOZ001>031-035>038-043-044-053-054-011500-
...NORTHERN AND WESTERN MISSOURI...

CITY           SKY/WX    TMP DP  RH WIND       PRES   REMARKS
KANSAS CTY INT MOSUNNY   78  68  71 S10       30.03S
KANSAS C DTWN  MOSUNNY   78  68  71 S10       30.03S
LEE`S SUMMIT   SUNNY     75  67  76 S7        30.05F
ST JOSEPH      SUNNY     76  70  82 S9        30.01S
CHILLICOTHE      N/A     76  70  82 S8        30.05S
KIRKSVILLE     SUNNY     76  69  79 SW8       30.07S

$$
MOZ066>068-077>081-088>096-101>105-011500-
...SOUTHWEST MISSOURI...

CITY           SKY/WX    TMP DP  RH WIND       PRES   REMARKS
SPRINGFIELD    SUNNY     76  67  73 S7        30.10S
JOPLIN         SUNNY     77  68  73 S8        30.08S

$$
MOZ032>034-039>042-045>050-055>058-069>072-011500-
...CENTRAL MISSOURI...

CITY           SKY/WX    TMP DP  RH WIND       PRES   REMARKS
COLUMBIA       SUNNY     76  70  82 S7        30.08F
JEFFERSON CITY SUNNY     76  70  82 S5        30.08S
ROLLA          SUNNY     77  69  76 S10       30.10S
SEDALIA        SUNNY     78  67  68 SW10      30.08S
WHITEMAN AFB   SUNNY     77  67  72 SW12      30.05F
WARRENSBURG    SUNNY     73  66  78 S7        30.06S
OSAGE BEACH    SUNNY     75  68  78 S6        30.10S

$$
MOZ051-052-059>065-011500-
...EAST CENTRAL MISSOURI...

CITY           SKY/WX    TMP DP  RH WIND       PRES   REMARKS
ST LOUIS INTL  MOSUNNY   80  69  69 SW9       30.10S
SPIRIT OF STL  SUNNY     78  71  79 SW6       30.08S
ST CHARLES     SUNNY     77  72  84 SW5       30.08F

$$
MOZ072>076-082>087-097>100-106>115-011500-
...SOUTH CENTRAL AND SOUTHEAST MISSOURI...

CITY           SKY/WX    TMP DP  RH WIND       PRES   REMARKS
CAPE GIRARDEAU SUNNY     76  70  82 CALM      30.12S
FARMINGTON     SUNNY     73  70  88 SW5       30.15S
POPLAR BLUFF   SUNNY     76  70  82 CALM      30.11S
WEST PLAINS    SUNNY     74  69  85 CALM      30.15R

$$


USA.gov is the U.S. government's official web portal to all federal, state and local government web resources and services.